sat.trackr.live / text

‹ back to catalog

SJ-11-06

NORAD 39624 · 2014-014A

PAYLOAD ACTIVE UNKNOWN

§ Identity

Operator
Country
PRC
Launch date
2014-03-31
Launch site
JSC
Launch vehicle
Mass (kg)
RCS (m²)
2.36

External: N2YO · Heavens-Above · Gunter

§ Orbital elements

Epoch: 2026-09-15T22:13:48.715392Z

Period
98.50 min
Inclination
97.9449°
Eccentricity
0.0015181
Mean motion
14.61921629 rev/d
Perigee alt
676.3 km
Apogee alt
697.7 km
Semi-major
7,065.1 km
B*
6.7977e-5
RAAN
282.2118°
Arg perigee
62.9452°
Mean anomaly
297.3297°
Rev number
66,395

§ Raw data

SJ-11-061 39624U 14014A   26258.92625828  .00000296  00000+0  67977-4 0  99952 39624  97.9449 282.2118 0015181  62.9452 297.3297 14.61921629663955

JSON: /api/v1/satellites/39624 · /tle

For live sub-satellite position, see the globe view (requires WebGL).

§ Visibility from observer

Set your observer location to see the next 7 days of passes ≥ 10°. The values pass through the URL so the page stays shareable.

No JS? Fill the form by hand. The geolocation button needs JavaScript.